When you browse on this site, cookies collect data to enhance your experience and personalize the content and advertising you see.
Visit our Privacy Policy to learn more. By continuing to use the site, you agree to this use of cookies and data.
  • In Sweden
  • List of Countries
  • For 7 days
  • Water Temperature
  • Satellite Maps
  • Weather Map
  • Weather Widgets
  • user-avatar
    Login

    Hourly Weather Salzburg

    Today, 19 July, Friday

    Time Temperature Precipitation Wind Pressure Humidity
    00:00 +8°C° 0 mm 1 mps 627 mmHg 91%
    01:00 +8°C° 0 mm 1 mps 627 mmHg 92%
    02:00 +8°C° 0 mm 1 mps 627 mmHg 91%
    03:00 +8°C° 0 mm 1 mps 627 mmHg 90%
    04:00 +8°C° 0 mm 1 mps 626 mmHg 90%
    05:00 +9°C° 0 mm 1 mps 627 mmHg 87%
    06:00 +10°C° 0 mm 1 mps 628 mmHg 85%
    07:00 +12°C° 0 mm 1 mps 629 mmHg 83%
    08:00 +13°C° 0 mm 0 mps 629 mmHg 71%
    09:00 +16°C° 0 mm 0 mps 630 mmHg 59%
    10:00 +19°C° 0 mm 0 mps 631 mmHg 47%
    11:00 +21°C° 0 mm 1 mps 631 mmHg 45%
    12:00 +22°C° 0 mm 1 mps 631 mmHg 43%
    13:00 +23°C° 0 mm 1 mps 631 mmHg 41%
    14:00 +22°C° 0.3 mm 1 mps 631 mmHg 50%
    15:00 +20°C° 0.3 mm 1 mps 630 mmHg 59%
    16:00 +18°C° 0.3 mm 2 mps 630 mmHg 68%
    17:00 +18°C° 0.5 mm 1 mps 630 mmHg 75%
    18:00 +15°C° 0.5 mm 1 mps 629 mmHg 82%
    19:00 +14°C° 0.5 mm 1 mps 629 mmHg 90%
    20:00 +13°C° 0.1 mm 1 mps 629 mmHg 90%
    21:00 +12°C° 0.1 mm 1 mps 629 mmHg 91%
    22:00 +11°C° 0.1 mm 1 mps 629 mmHg 91%
    23:00 +11°C° 0 mm 1 mps 629 mmHg 91%

    Tomorrow, 20 July, Saturday

    Time Temperature Precipitation Wind Pressure Humidity
    00:00 +10°C° 0 mm 1 mps 628 mmHg 91%
    01:00 +10°C° 0 mm 1 mps 628 mmHg 91%
    02:00 +10°C° 0 mm 1 mps 628 mmHg 91%
    03:00 +9°C° 0 mm 1 mps 628 mmHg 91%
    04:00 +9°C° 0 mm 1 mps 628 mmHg 91%
    05:00 +11°C° 0 mm 1 mps 629 mmHg 89%
    06:00 +12°C° 0 mm 1 mps 629 mmHg 87%
    07:00 +14°C° 0 mm 1 mps 630 mmHg 85%
    08:00 +18°C° 0 mm 1 mps 631 mmHg 72%
    09:00 +19°C° 0 mm 0 mps 632 mmHg 60%
    10:00 +22°C° 0 mm 0 mps 633 mmHg 47%
    11:00 +24°C° 0 mm 1 mps 633 mmHg 44%
    12:00 +25°C° 0 mm 1 mps 633 mmHg 41%
    13:00 +26°C° 0 mm 1 mps 633 mmHg 38%
    14:00 +24°C° 0.3 mm 1 mps 633 mmHg 47%
    15:00 +22°C° 0.3 mm 1 mps 632 mmHg 57%
    16:00 +20°C° 0.3 mm 1 mps 631 mmHg 66%
    17:00 +19°C° 0.6 mm 1 mps 631 mmHg 73%
    18:00 +18°C° 0.6 mm 1 mps 631 mmHg 79%
    19:00 +15°C° 0.6 mm 0 mps 631 mmHg 86%
    20:00 +15°C° 0.4 mm 1 mps 631 mmHg 88%
    21:00 +13°C° 0.4 mm 1 mps 631 mmHg 89%
    22:00 +12°C° 0.4 mm 1 mps 630 mmHg 90%
    23:00 +12°C° 0 mm 1 mps 630 mmHg 90%

    Day after tomorrow, 21 July, Sunday

    Time Temperature Precipitation Wind Pressure Humidity
    00:00 +12°C° 0 mm 2 mps 630 mmHg 90%
    01:00 +12°C° 0 mm 2 mps 630 mmHg 90%
    02:00 +12°C° 0 mm 2 mps 630 mmHg 89%
    03:00 +10°C° 0 mm 2 mps 630 mmHg 87%
    04:00 +10°C° 0 mm 2 mps 630 mmHg 86%
    05:00 +13°C° 0 mm 1 mps 631 mmHg 83%
    06:00 +14°C° 0 mm 1 mps 632 mmHg 80%
    07:00 +15°C° 0 mm 0 mps 632 mmHg 77%
    08:00 +18°C° 0.2 mm 1 mps 633 mmHg 74%
    09:00 +20°C° 0.2 mm 1 mps 634 mmHg 70%
    10:00 +21°C° 0.2 mm 1 mps 635 mmHg 67%
    11:00 +22°C° 0.3 mm 1 mps 635 mmHg 62%
    12:00 +23°C° 0.3 mm 2 mps 635 mmHg 57%
    13:00 +23°C° 0.3 mm 2 mps 635 mmHg 52%
    14:00 +21°C° 0.9 mm 2 mps 635 mmHg 63%
    15:00 +21°C° 0.9 mm 1 mps 634 mmHg 73%
    16:00 +20°C° 0.9 mm 1 mps 634 mmHg 84%
    17:00 +19°C° 1 mm 1 mps 634 mmHg 87%
    18:00 +18°C° 1 mm 1 mps 634 mmHg 90%
    19:00 +15°C° 1 mm 0 mps 634 mmHg 93%
    20:00 +14°C° 0.2 mm 0 mps 634 mmHg 93%
    21:00 +13°C° 0.2 mm 0 mps 634 mmHg 93%
    22:00 +12°C° 0.2 mm 1 mps 634 mmHg 93%
    23:00 +12°C° 0 mm 1 mps 633 mmHg 93%

    22 July, Monday

    Time Temperature Precipitation Wind Pressure Humidity
    00:00 +12°C° 0 mm 1 mps 633 mmHg 93%
    01:00 +11°C° 0 mm 1 mps 633 mmHg 92%
    02:00 +11°C° 0 mm 1 mps 633 mmHg 92%
    03:00 +11°C° 0 mm 1 mps 633 mmHg 91%
    04:00 +11°C° 0 mm 1 mps 633 mmHg 90%
    05:00 +12°C° 0 mm 1 mps 633 mmHg 89%
    06:00 +13°C° 0 mm 0 mps 634 mmHg 87%
    07:00 +14°C° 0 mm 0 mps 635 mmHg 85%
    08:00 +16°C° 0.1 mm 0 mps 635 mmHg 78%
    09:00 +18°C° 0.1 mm 0 mps 636 mmHg 71%
    10:00 +22°C° 0.1 mm 1 mps 637 mmHg 64%
    11:00 +22°C° 0.3 mm 1 mps 637 mmHg 63%
    12:00 +23°C° 0.3 mm 1 mps 636 mmHg 61%
    13:00 +23°C° 0.3 mm 2 mps 636 mmHg 59%
    14:00 +23°C° 0.2 mm 2 mps 636 mmHg 58%
    15:00 +23°C° 0.2 mm 2 mps 636 mmHg 56%
    16:00 +23°C° 0.2 mm 2 mps 636 mmHg 55%
    17:00 +21°C° 0.1 mm 2 mps 635 mmHg 66%
    18:00 +20°C° 0.1 mm 1 mps 635 mmHg 78%
    19:00 +18°C° 0.1 mm 1 mps 634 mmHg 89%
    20:00 +16°C° 0 mm 1 mps 634 mmHg 90%
    21:00 +15°C° 0 mm 1 mps 634 mmHg 92%
    22:00 +14°C° 0 mm 1 mps 634 mmHg 94%
    23:00 +13°C° 0 mm 1 mps 633 mmHg 93%

    23 July, Tuesday

    Time Temperature Precipitation Wind Pressure Humidity
    00:00 +13°C° 0 mm 1 mps 633 mmHg 93%
    01:00 +12°C° 0 mm 1 mps 633 mmHg 93%
    02:00 +12°C° 0 mm 1 mps 633 mmHg 93%
    03:00 +12°C° 0 mm 1 mps 633 mmHg 92%
    04:00 +12°C° 0 mm 1 mps 632 mmHg 92%
    05:00 +13°C° 0 mm 1 mps 633 mmHg 89%
    06:00 +14°C° 0 mm 0 mps 633 mmHg 87%
    07:00 +15°C° 0 mm 0 mps 634 mmHg 85%
    08:00 +17°C° 0 mm 0 mps 634 mmHg 74%
    09:00 +22°C° 0 mm 1 mps 635 mmHg 63%
    10:00 +24°C° 0 mm 1 mps 636 mmHg 52%
    11:00 +25°C° 0 mm 1 mps 636 mmHg 48%
    12:00 +26°C° 0 mm 1 mps 636 mmHg 44%
    13:00 +26°C° 0 mm 1 mps 636 mmHg 40%
    14:00 +26°C° 0 mm 2 mps 635 mmHg 43%
    15:00 +25°C° 0 mm 2 mps 635 mmHg 46%
    16:00 +25°C° 0 mm 2 mps 634 mmHg 49%
    17:00 +23°C° 0 mm 2 mps 634 mmHg 60%
    18:00 +21°C° 0 mm 1 mps 633 mmHg 71%
    19:00 +19°C° 0 mm 1 mps 632 mmHg 83%
    20:00 +18°C° 0 mm 1 mps 632 mmHg 85%
    21:00 +15°C° 0 mm 1 mps 632 mmHg 88%
    22:00 +14°C° 0 mm 1 mps 631 mmHg 91%
    23:00 +14°C° 0 mm 1 mps 631 mmHg 91%

    24 July, Wednesday

    Time Temperature Precipitation Wind Pressure Humidity
    00:00 +13°C° 0 mm 1 mps 631 mmHg 92%
    01:00 +13°C° 0 mm 1 mps 631 mmHg 92%
    02:00 +13°C° 0 mm 1 mps 630 mmHg 92%
    03:00 +13°C° 0 mm 1 mps 630 mmHg 92%
    04:00 +12°C° 0 mm 1 mps 630 mmHg 93%
    05:00 +14°C° 0 mm 1 mps 630 mmHg 88%
    06:00 +15°C° 0 mm 0 mps 631 mmHg 83%
    07:00 +16°C° 0 mm 0 mps 631 mmHg 78%
    08:00 +18°C° 0 mm 0 mps 632 mmHg 67%
    09:00 +23°C° 0 mm 1 mps 633 mmHg 56%
    10:00 +25°C° 0 mm 1 mps 633 mmHg 45%
    11:00 +25°C° 0 mm 1 mps 633 mmHg 43%
    12:00 +26°C° 0 mm 2 mps 633 mmHg 41%
    13:00 +26°C° 0 mm 2 mps 633 mmHg 38%
    14:00 +26°C° 0 mm 2 mps 632 mmHg 41%
    15:00 +26°C° 0 mm 2 mps 632 mmHg 44%
    16:00 +25°C° 0 mm 2 mps 632 mmHg 47%
    17:00 +23°C° 0 mm 2 mps 631 mmHg 58%
    18:00 +21°C° 0 mm 1 mps 630 mmHg 69%
    19:00 +19°C° 0 mm 1 mps 630 mmHg 80%
    20:00 +18°C° 0 mm 1 mps 629 mmHg 83%
    21:00 +15°C° 0 mm 1 mps 629 mmHg 87%
    22:00 +14°C° 0 mm 1 mps 628 mmHg 91%
    23:00 +14°C° 0 mm 1 mps 628 mmHg 91%
    Show more